1483354800.92,57877,10.38,72564.0,-6.81,-38.43,-36.85,0,*51
1483354802.18,57878,10.31,72560.5,-6.81,-38.23,-36.79,0,*5B
1483354803.41,57879,10.38,72560.5,-6.81,-38.17,-36.79,0,*5D
1483354804.65,57880,10.31,72566.5,-6.81,-38.29,-36.73,0,*5C
1483354805.89,57881,10.38,72566.3,-6.81,-37.99,-36.43,0,*5A
1483354807.13,57882,10.31,72562.3,-6.81,-37.99,-36.31,0,*5C
1483354808.39,57883,10.31,72564.8,-6.81,-37.81,-36.13,0,*54
1483354809.64,57884,10.31,72570.3,-6.81,-37.51,-35.89,0,*5E
1483354810.85,57885,10.38,72560.3,-6.81,-37.87,-36.07,0,*51
1483354812.09,57886,10.38,72552.0,-6.85,-37.99,-36.31,0,*5C
1483354813.32,57887,10.31,72560.5,-6.85,-38.17,-36.49,0,*5B
1483354814.56,57888,10.38,72564.3,-6.81,-38.23,-36.43,0,*5D
1483354815.79,57889,10.31,72558.8,-6.81,-38.11,-36.43,0,*5D
1483354817.0,57890,10.38,72554.0,-6.81,-38.17,-36.43,0,*53
1483354818.26,57891,10.38,72556.3,-6.85,-37.99,-36.37,0,*5C
1483354819.49,57892,10.31,72558.3,-6.81,-37.99,-36.31,0,*5D
1483354820.73,57893,10.31,72554.0,-6.85,-38.05,-36.49,0,*5D
1483354821.99,57894,10.38,72566.3,-6.81,-37.99,-36.25,0,*5E
1483354823.23,57895,10.31,72560.0,-6.81,-37.99,-36.31,0,*5A
1483354824.48,57896,10.31,72554.0,-6.85,-38.23,-36.49,0,*5C
1483354825.72,57897,10.38,72568.0,-6.85,-38.17,-36.49,0,*5A
1483354826.95,57898,10.38,72554.8,-6.85,-38.17,-36.49,0,*55
1483354828.2,57899,10.31,72550.0,-6.85,-38.23,-36.37,0,*5A
1483354829.43,57900,10.38,72542.3,-6.85,-38.17,-36.37,0,*5C
1483354830.71,57901,10.38,72546.5,-6.91,-38.23,-36.37,0,*5F
1483354831.95,57902,10.38,72550.5,-6.91,-38.05,-36.19,0,*54
1483354833.24,57903,10.31,72550.8,-6.87,-37.69,-35.83,0,*57
1483354834.54,57904,10.31,72536.8,-6.87,-37.81,-35.83,0,*56
1483354835.84,57905,10.38,72526.5,-6.87,-37.81,-35.83,0,*57
1483354837.09,57906,10.31,72536.5,-6.91,-37.87,-35.89,0,*5F
1483354838.37,57907,10.31,72528.3,-6.87,-37.81,-35.77,0,*5E
1483354839.63,57908,10.31,72544.5,-6.87,-37.63,-35.59,0,*51
1483354840.91,57909,10.38,72518.5,-6.91,-37.69,-35.65,0,*52
1483354842.18,57910,10.38,72534.5,-6.87,-37.87,-35.83,0,*55
1483354843.45,57911,10.31,72552.3,-6.87,-37.69,-35.71,0,*59
1483354844.73,57912,10.38,72532.8,-6.91,-37.51,-35.65,0,*53
1483354846.02,57913,10.31,72540.8,-6.91,-37.51,-35.41,0,*54
1483354847.31,57914,10.31,72546.0,-6.87,-37.51,-35.35,0,*57
1483354848.6,57915,10.38,72520.5,-6.91,-37.21,-35.07,0,*57
1483354849.89,57916,10.31,72496.3,-6.87,-37.09,-35.07,0,*59
1483354851.12,57917,10.31,72520.8,-6.87,-37.15,-35.17,0,*54
1483354852.36,57918,10.38,72532.5,-6.85,-37.15,-35.07,0,*58
1483354853.61,57919,10.38,72516.5,-6.85,-37.09,-35.07,0,*54
1483354854.87,57920,10.38,72512.8,-6.87,-37.27,-35.07,0,*50
1483354856.13,57921,10.38,72532.8,-6.87,-37.33,-35.07,0,*54
1483354857.36,57922,10.31,72542.3,-6.85,-37.09,-34.89,0,*5B
1483354858.58,57923,10.38,72532.0,-6.81,-37.27,-35.01,0,*53
1483354859.81,57924,10.38,72512.8,-6.81,-37.27,-34.95,0,*58
1483354861.02,57925,10.31,72516.3,-6.85,-37.33,-34.89,0,*55
1483354862.28,57926,10.38,72530.0,-6.81,-37.09,-34.95,0,*56
1483354863.49,57927,10.38,72516.8,-6.85,-37.27,-34.89,0,*52
1483354864.73,57928,10.38,72538.8,-6.81,-37.21,-34.77,0,*5E
1483354865.93,57929,10.31,72538.5,-6.81,-37.03,-34.41,0,*5A
1483354867.19,57930,10.38,72550.3,-6.81,-37.39,-34.95,0,*52
1483354868.46,57931,10.31,72520.3,-6.81,-37.21,-34.83,0,*5D
1483354869.67,57932,10.38,72526.5,-6.81,-37.27,-34.77,0,*53
1483354870.88,57933,10.31,72520.8,-6.81,-37.27,-34.59,0,*5E
1483354872.12,57934,10.38,72516.0,-6.81,-37.21,-34.59,0,*5F
1483354873.32,57935,10.38,72532.5,-6.81,-37.03,-34.25,0,*55
1483354874.52,57936,10.31,72532.3,-6.81,-37.03,-34.25,0,*56
1483354875.77,57937,10.31,72536.5,-6.81,-37.09,-34.35,0,*5C
1483354877.03,57938,10.38,72546.5,-6.81,-37.09,-34.35,0,*53
1483354878.29,57939,10.38,72524.5,-6.81,-37.39,-34.53,0,*51
1483354879.52,57940,10.31,72540.5,-6.81,-37.15,-34.19,0,*5F
1483354880.78,57941,10.38,72540.0,-6.81,-37.21,-34.35,0,*57
1483354881.99,57942,10.38,72538.8,-6.81,-37.33,-34.47,0,*52
1483354883.25,57943,10.38,72534.5,-6.81,-37.21,-34.31,0,*51
1483354884.49,57944,10.38,72536.3,-6.81,-37.15,-34.01,0,*52
1483354885.72,57945,10.31,72526.5,-6.79,-37.03,-34.13,0,*50
1483354886.96,57946,10.38,72536.8,-6.79,-37.03,-33.95,0,*5A
1483354888.2,57947,10.38,72540.5,-6.81,-37.21,-34.13,0,*55
1483354889.43,57948,10.38,72524.5,-6.81,-37.03,-34.01,0,*59
1483354890.67,57949,10.38,72528.0,-6.79,-36.97,-33.95,0,*59
1483354891.9,57950,10.31,72532.3,-6.79,-36.97,-33.83,0,*56
1483354893.14,57951,10.31,72538.8,-6.79,-36.97,-33.83,0,*57
1483354894.41,57952,10.38,72538.0,-6.79,-36.97,-33.77,0,*5F
1483354895.64,57953,10.38,72518.8,-6.79,-37.03,-33.95,0,*5E
1483354896.9,57954,10.38,72562.0,-6.79,-37.03,-33.77,0,*55
1483354898.14,57955,10.38,72552.0,-6.79,-36.73,-33.37,0,*56
1483354899.38,57956,10.38,72546.0,-6.77,-36.49,-33.15,0,*52
1483354900.67,57957,10.38,72536.8,-6.75,-36.37,-32.85,0,*50
1483354901.93,57958,10.38,72544.0,-6.75,-36.31,-32.79,0,*5A
1483354903.22,57959,10.38,72530.8,-6.75,-36.37,-32.97,0,*5D
1483354904.51,57960,10.38,72548.5,-6.75,-36.37,-32.85,0,*54
1483354905.77,57961,10.38,72564.5,-6.73,-36.49,-32.97,0,*59
1483354907.01,57962,10.38,72566.5,-6.73,-36.67,-33.09,0,*50
1483354908.26,57963,10.38,72562.3,-6.69,-36.61,-32.97,0,*5A
1483354909.53,57964,10.38,72546.5,-6.69,-36.61,-32.79,0,*5D
1483354910.8,57965,10.38,72540.5,-6.73,-36.49,-32.75,0,*51
1483354912.06,57966,10.38,72554.8,-6.69,-36.49,-32.79,0,*55
1483354913.32,57967,10.38,72560.0,-6.69,-36.49,-32.79,0,*54
1483354914.55,57968,10.38,72560.8,-6.67,-36.43,-32.57,0,*53
1483354915.82,57969,10.38,72558.0,-6.67,-36.55,-32.75,0,*55
1483354917.09,57970,10.38,72554.5,-6.67,-36.37,-32.51,0,*5F
1483354918.32,57971,10.38,72562.3,-6.63,-36.31,-32.35,0,*5E
1483354919.56,57972,10.38,72530.0,-6.65,-36.73,-32.85,0,*56
1483354920.78,57973,10.38,72544.0,-6.65,-36.85,-32.91,0,*5B
1483354922.04,57974,10.38,72548.5,-6.65,-36.79,-32.85,0,*5A
1483354923.28,57975,10.38,72550.5,-6.65,-36.79,-32.69,0,*59
1483354924.51,57976,10.38,72536.0,-6.65,-36.79,-32.69,0,*5A
1483354925.76,57977,10.38,72542.0,-6.65,-36.97,-32.75,0,*56
1483354926.99,57978,10.31,72544.8,-6.65,-36.61,-32.35,0,*54
1483354928.2,57979,10.38,72552.3,-6.65,-36.55,-32.39,0,*5E
1483354929.49,57980,10.38,72550.5,-6.63,-36.49,-32.29,0,*52
1483354930.74,57981,10.38,72542.5,-6.63,-36.49,-32.35,0,*5E
1483354931.98,57982,10.38,72544.0,-6.59,-36.43,-32.29,0,*53
1483354933.26,57983,10.38,72546.0,-6.63,-36.49,-32.19,0,*52
1483354934.55,57984,10.38,72540.5,-6.63,-36.49,-32.19,0,*55
1483354935.79,57985,10.38,72554.0,-6.61,-36.67,-32.19,0,*5A
1483354937.02,57986,10.38,72546.5,-6.61,-36.01,-31.61,0,*55
1483354938.28,57987,10.38,72548.0,-6.61,-36.37,-31.91,0,*5E
1483354939.54,57988,10.38,72554.5,-6.59,-36.25,-31.73,0,*55
1483354940.77,57989,10.38,72552.0,-6.59,-36.13,-31.67,0,*54
1483354942.05,57990,10.38,72550.5,-6.57,-36.13,-31.57,0,*51
1483354943.32,57991,10.38,72542.0,-6.57,-35.77,-31.23,0,*52
1483354944.55,57992,10.38,72546.8,-6.55,-35.71,-31.11,0,*54
1483354945.77,57993,10.38,72546.3,-6.55,-35.71,-31.17,0,*53
1483354947.02,57994,10.38,72554.8,-6.53,-35.83,-31.01,0,*58
1483354948.3,57995,10.38,72558.8,-6.53,-35.65,-30.95,0,*5D
1483354949.56,57996,10.38,72560.8,-6.53,-35.71,-31.11,0,*56
1483354950.82,57997,10.38,72548.0,-6.53,-35.47,-30.61,0,*54
1483354952.05,57998,10.38,72550.8,-6.51,-35.29,-30.55,0,*56
1483354953.31,57999,10.38,72516.0,-6.47,-35.35,-30.51,0,*59
1483354954.54,58000,10.38,72500.3,-6.47,-35.41,-30.67,0,*59
1483354955.77,58001,10.38,72506.3,-6.47,-35.35,-30.45,0,*5B
1483354957.03,58002,10.38,72494.3,-6.45,-35.23,-30.45,0,*5D
1483354958.26,58003,10.38,72512.8,-6.43,-35.23,-30.45,0,*5A
1483354959.49,58004,10.38,72516.3,-6.43,-35.13,-30.17,0,*59
1483354960.7,58005,10.38,72520.5,-6.43,-35.01,-30.11,0,*5D
1483354961.94,58006,10.38,72522.0,-6.43,-35.23,-30.33,0,*5E
1483354963.14,58007,10.38,72528.3,-6.43,-35.13,-30.11,0,*5C
1483354964.39,58008,10.38,72534.0,-6.41,-34.95,-29.79,0,*58
1483354965.63,58009,10.38,72526.5,-6.39,-34.95,-29.79,0,*56
1483354966.83,58010,10.38,72516.0,-6.35,-35.17,-30.11,0,*5F
1483354968.07,58011,10.38,72518.3,-6.37,-35.41,-30.23,0,*5E
1483354969.33,58012,10.38,72502.8,-6.37,-35.29,-30.17,0,*54
1483354970.58,58013,10.38,72500.8,-6.37,-35.41,-30.23,0,*5C
1483354971.8,58014,10.38,72508.8,-6.37,-35.59,-30.23,0,*52
1483354973.06,58015,10.38,72512.0,-6.35,-35.35,-30.17,0,*5C
1483354974.27,58016,10.38,72506.3,-6.35,-35.17,-29.95,0,*5D
1483354975.52,58017,10.38,72512.8,-6.33,-35.23,-29.79,0,*5F
1483354976.75,58018,10.38,72530.5,-6.31,-35.07,-29.57,0,*58
1483354977.96,58019,10.38,72518.0,-6.31,-35.01,-29.61,0,*5A
1483354979.18,58020,10.38,72526.5,-6.31,-35.17,-29.73,0,*54
1483354980.42,58021,10.31,72512.5,-6.29,-35.01,-29.57,0,*5D
1483354981.64,58022,10.38,72532.5,-6.29,-34.89,-29.07,0,*5A
1483354982.89,58023,10.38,72542.3,-6.29,-34.35,-28.69,0,*55
1483354984.14,58024,10.38,72538.3,-6.25,-34.65,-28.85,0,*59
1483354985.37,58025,10.31,72530.0,-6.25,-35.13,-29.51,0,*50
1483354986.63,58026,10.38,72540.0,-6.23,-35.07,-29.23,0,*55
1483354987.88,58027,10.38,72534.0,-6.23,-35.13,-29.39,0,*5A
1483354989.12,58028,10.38,72538.5,-6.21,-35.01,-29.17,0,*58
1483354990.38,58029,10.38,72534.8,-6.21,-34.83,-28.91,0,*5D
1483354991.63,58030,10.38,72528.8,-6.21,-35.07,-29.13,0,*53
1483354992.87,58031,10.38,72508.0,-6.19,-35.01,-29.07,0,*5A
1483354994.08,58032,10.38,72524.0,-6.17,-35.01,-29.07,0,*57
1483354995.3,58033,10.38,72526.3,-6.17,-35.17,-29.13,0,*54
1483354996.55,58034,10.38,72508.0,-6.19,-35.53,-29.45,0,*5E
1483354997.79,58035,10.38,72502.5,-6.19,-35.59,-29.67,0,*55
1483354999.04,58036,10.38,72504.5,-6.17,-35.35,-29.39,0,*59
1483355000.29,58037,10.38,72538.0,-6.17,-35.35,-29.39,0,*58
1483355001.57,58038,10.38,72538.3,-6.19,-35.41,-29.17,0,*56
1483355002.77,58039,10.38,72512.8,-6.17,-35.17,-29.07,0,*5B
1483355004.0,58040,10.38,72522.3,-6.19,-35.47,-29.45,0,*58
1483355005.23,58041,10.38,72534.3,-6.17,-35.53,-29.45,0,*52
1483355006.48,58042,10.31,72546.0,-6.17,-35.35,-29.29,0,*5B
1483355007.76,58043,10.38,72542.5,-6.19,-35.23,-28.91,0,*51
1483355008.97,58044,10.38,72532.0,-6.17,-35.13,-28.85,0,*5E
1483355010.2,58045,10.38,72548.0,-6.17,-35.13,-28.91,0,*5A
1483355011.43,58046,10.31,72560.8,-6.13,-35.13,-28.79,0,*5B
1483355012.67,58047,10.38,72550.5,-6.13,-34.95,-28.69,0,*54
1483355013.91,58048,10.38,72528.5,-6.13,-34.89,-28.63,0,*5C
1483355015.15,58049,10.38,72540.0,-6.13,-34.95,-28.69,0,*5A
1483355016.42,58050,10.38,72564.3,-6.13,-35.07,-28.63,0,*52
1483355017.69,58051,10.38,72542.3,-6.13,-34.65,-28.21,0,*50
1483355018.93,58052,10.38,72544.5,-6.13,-34.47,-28.05,0,*55
1483355020.2,58053,10.38,72546.8,-6.13,-34.53,-28.05,0,*51
1483355021.45,58054,10.38,72548.5,-6.13,-34.47,-28.05,0,*53
1483355022.74,58055,10.38,72562.3,-6.11,-34.53,-28.05,0,*55
1483355023.95,58056,10.38,72552.0,-6.09,-34.07,-27.77,0,*54
1483355025.2,58057,10.38,72554.8,-6.09,-34.59,-27.99,0,*5E
1483355026.46,58058,10.38,72534.5,-6.09,-34.65,-28.09,0,*58
1483355027.7,58059,10.31,72536.0,-6.07,-34.47,-27.89,0,*50
1483355028.94,58060,10.38,72560.8,-6.05,-34.01,-27.51,0,*5F
1483355030.18,58061,10.38,72560.3,-6.05,-34.01,-27.51,0,*5E
1483355031.41,58062,10.38,72554.3,-6.05,-34.01,-27.51,0,*5D
1483355032.64,58063,10.38,72562.8,-6.01,-34.13,-27.45,0,*5E
1483355033.88,58064,10.38,72566.0,-6.01,-34.47,-27.83,0,*52
1483355035.14,58065,10.38,72550.0,-5.99,-34.59,-27.83,0,*5E
1483355036.37,58066,10.38,72550.3,-5.99,-34.59,-27.89,0,*57
1483355037.63,58067,10.38,72560.0,-5.99,-34.59,-27.83,0,*5C
1483355038.9,58068,10.38,72554.5,-5.99,-34.71,-28.05,0,*58
1483355040.16,58069,10.31,72548.8,-5.99,-34.71,-27.99,0,*53
1483355041.42,58070,10.38,72544.8,-5.99,-34.59,-27.83,0,*5A
1483355042.68,58071,10.38,72542.8,-5.99,-34.77,-27.99,0,*5C
1483355043.93,58072,10.31,72514.8,-5.99,-35.59,-28.63,0,*58
1483355045.2,58073,10.31,72522.8,-5.99,-35.41,-28.47,0,*56
1483355046.43,58074,10.38,72500.0,-6.01,-35.41,-28.53,0,*56
1483355047.71,58075,10.38,72532.8,-5.99,-34.95,-28.05,0,*5E
1483355048.94,58076,10.38,72556.3,-5.99,-35.59,-28.53,0,*5F
1483355050.16,58077,10.38,72564.3,-6.01,-35.29,-28.47,0,*5E
1483355051.41,58078,10.38,72566.8,-5.99,-35.47,-28.47,0,*5B
1483355052.64,58079,10.38,72548.0,-6.01,-35.47,-28.47,0,*58
1483355053.87,58080,10.38,72552.0,-6.01,-35.47,-28.47,0,*5E
1483355055.12,58081,10.38,72548.8,-6.01,-35.23,-28.21,0,*5D
1483355056.33,58082,10.38,72532.5,-6.01,-35.13,-28.15,0,*5A
1483355057.56,58083,10.38,72530.5,-6.05,-35.17,-28.21,0,*5C
1483355058.84,58084,10.38,72536.3,-6.07,-35.41,-28.47,0,*5A
1483355060.1,58085,10.38,72534.0,-6.07,-35.71,-28.63,0,*5E
1483355061.33,58086,10.38,72530.8,-6.07,-34.89,-27.77,0,*51
1483355062.57,58087,10.38,72538.0,-6.07,-35.01,-27.93,0,*5B
1483355063.81,58088,10.38,72550.5,-6.07,-34.47,-27.55,0,*5D
1483355065.03,58089,10.38,72546.5,-6.05,-35.01,-27.89,0,*5C
1483355066.27,58090,10.38,72550.8,-6.05,-34.65,-27.67,0,*57
1483355067.48,58091,10.38,72562.5,-6.05,-34.59,-27.55,0,*58
1483355068.75,58092,10.38,72554.8,-6.07,-34.59,-27.39,0,*53
1483355069.98,58093,10.38,72542.5,-6.07,-34.89,-27.71,0,*53
1483355071.22,58094,10.38,72540.8,-6.05,-34.83,-27.67,0,*5B
1483355072.45,58095,10.38,72544.3,-6.07,-34.89,-27.77,0,*53
1483355073.67,58096,10.38,72538.8,-6.05,-34.59,-27.67,0,*5E
1483355074.96,58097,10.38,72542.3,-6.07,-35.07,-27.83,0,*5D
1483355076.24,58098,10.38,72538.3,-6.07,-35.23,-27.99,0,*5F
1483355077.47,58099,10.38,72532.0,-6.07,-35.17,-27.77,0,*59
1483355078.73,58100,10.38,72534.3,-6.07,-34.71,-27.45,0,*58
1483355079.97,58101,10.38,72538.8,-6.07,-34.71,-27.55,0,*58
1483355081.23,58102,10.38,72536.3,-6.07,-35.07,-27.77,0,*5B
1483355082.48,58103,10.38,72548.0,-6.07,-34.71,-27.55,0,*5A
1483355083.7,58104,10.38,72538.8,-6.07,-35.17,-27.77,0,*5C
1483355084.97,58105,10.31,72554.3,-6.07,-35.07,-27.77,0,*5C
1483355086.21,58106,10.38,72548.0,-6.09,-34.65,-27.29,0,*5F
1483355087.42,58107,10.38,72540.0,-6.09,-34.71,-27.55,0,*50
1483355088.67,58108,10.38,72530.5,-6.09,-34.65,-27.29,0,*51
1483355089.9,58109,10.38,72520.5,-6.09,-34.83,-27.55,0,*53
1483355091.16,58110,10.38,72538.8,-6.11,-34.89,-27.61,0,*5F
1483355092.41,58111,10.31,72518.3,-6.11,-34.77,-27.67,0,*59
1483355093.65,58112,10.38,72516.3,-6.09,-34.65,-27.29,0,*5A
1483355094.87,58113,10.38,72546.3,-6.09,-34.47,-27.07,0,*57
1483355096.1,58114,10.38,72544.0,-6.09,-34.71,-27.45,0,*53
1483355097.34,58115,10.38,72538.3,-6.09,-34.89,-27.61,0,*53
1483355098.6,58116,10.38,72538.5,-6.11,-34.53,-27.03,0,*5A
1483355099.81,58117,10.31,72536.5,-6.09,-34.25,-26.87,0,*5E
1483355101.07,58118,10.38,72546.3,-6.09,-34.31,-26.93,0,*51
1483355102.31,58119,10.38,72548.0,-6.09,-34.41,-26.97,0,*53
1483355103.52,58120,10.38,72546.5,-6.09,-34.13,-26.87,0,*5F
1483355104.77,58121,10.38,72538.0,-6.09,-33.89,-26.71,0,*53
1483355106.0,58122,10.38,72538.0,-6.09,-33.95,-26.71,0,*5D
1483355107.2,58123,10.38,72542.8,-6.09,-33.95,-26.61,0,*5D
1483355108.41,58124,10.38,72544.8,-6.09,-33.95,-26.61,0,*5A
1483355109.64,58125,10.38,72546.5,-6.07,-33.95,-26.61,0,*55
1483355110.9,58126,10.38,72540.8,-6.07,-34.13,-26.71,0,*5E
1483355112.18,58127,10.38,72544.3,-6.07,-33.77,-26.55,0,*5C
1483355113.47,58128,10.38,72550.3,-6.07,-33.77,-26.55,0,*53
1483355114.7,58129,10.38,72554.3,-6.07,-34.07,-26.61,0,*55
1483355115.94,58130,10.38,72550.0,-6.05,-33.83,-26.55,0,*53
1483355117.17,58131,10.38,72554.0,-6.05,-33.83,-26.55,0,*52
1483355118.44,58132,10.38,72548.5,-6.07,-33.73,-26.39,0,*56
1483355119.7,58133,10.38,72546.0,-6.07,-33.55,-26.13,0,*5B
1483355120.93,58134,10.31,72542.0,-6.05,-33.27,-25.91,0,*52
1483355122.13,58135,10.31,72530.5,-6.05,-33.15,-25.87,0,*55
1483355123.36,58136,10.38,72530.8,-6.05,-33.31,-25.91,0,*57
1483355124.6,58137,10.38,72538.3,-6.05,-33.31,-26.03,0,*5E
1483355125.84,58138,10.38,72522.0,-6.05,-33.27,-26.03,0,*56
1483355127.04,58139,10.31,72530.5,-6.01,-32.91,-25.65,0,*5C
1483355128.31,58140,10.38,72524.0,-5.99,-32.75,-25.65,0,*5A
1483355129.5,58141,10.38,72540.5,-5.97,-33.15,-25.91,0,*59
1483355130.76,58142,10.38,72550.8,-5.99,-33.03,-25.81,0,*52
1483355132.01,58143,10.38,72550.0,-5.99,-32.13,-24.87,0,*54
1483355133.21,58144,10.38,72546.3,-5.97,-32.23,-24.97,0,*5F
1483355134.44,58145,10.38,72548.3,-5.95,-32.29,-25.13,0,*5B
1483355135.71,58146,10.38,72556.8,-5.95,-31.95,-24.83,0,*54
1483355136.95,58147,10.38,72554.3,-5.93,-32.51,-25.39,0,*58
1483355138.16,58148,10.38,72548.0,-5.91,-32.39,-25.39,0,*5B
1483355139.45,58149,10.38,72532.0,-5.93,-32.85,-25.75,0,*57
1483355140.69,58150,10.38,72530.3,-5.93,-33.03,-25.91,0,*5A
1483355141.95,58151,10.38,72526.5,-5.93,-33.15,-26.13,0,*55
1483355143.24,58152,10.38,72528.5,-5.93,-33.31,-26.13,0,*50
1483355144.5,58153,10.38,72496.5,-5.91,-33.31,-26.33,0,*51
1483355145.76,58154,10.38,72520.5,-5.93,-33.31,-26.23,0,*55
1483355146.96,58155,10.38,72534.5,-5.91,-32.91,-25.91,0,*57
1483355148.2,58156,10.38,72530.5,-5.91,-32.75,-25.87,0,*59
1483355149.47,58157,10.31,72538.3,-5.91,-32.75,-25.75,0,*55
1483355150.71,58158,10.38,72546.0,-5.93,-33.15,-26.03,0,*5D
1483355151.97,58159,10.38,72540.5,-5.91,-33.09,-26.17,0,*56
1483355153.2,58160,10.38,72534.5,-5.93,-33.03,-26.23,0,*53
1483355154.46,58161,10.38,72538.5,-5.93,-32.85,-25.91,0,*57
1483355155.67,58162,10.38,72540.8,-5.91,-32.23,-25.39,0,*58
1483355156.91,58163,10.38,72556.3,-5.91,-32.19,-25.35,0,*5C
1483355158.14,58164,10.38,72546.5,-5.91,-31.91,-25.19,0,*56
1483355159.4,58165,10.38,72542.5,-5.89,-31.45,-24.67,0,*5F
1483355160.68,58166,10.38,72530.3,-5.89,-32.19,-25.45,0,*57
1483355161.94,58167,10.38,72536.5,-5.89,-32.23,-25.45,0,*5F
1483355163.19,58168,10.38,72534.0,-5.89,-31.79,-25.03,0,*5E
1483355164.43,58169,10.38,72540.3,-5.87,-31.33,-24.71,0,*5B
1483355165.69,58170,10.38,72538.0,-5.87,-31.51,-24.87,0,*5E
1483355166.92,58171,10.38,72538.0,-5.87,-32.35,-25.55,0,*50
1483355168.19,58172,10.38,72534.5,-5.87,-31.85,-25.29,0,*50
1483355169.44,58173,10.38,72534.5,-5.89,-31.51,-24.97,0,*52
1483355170.72,58174,10.38,72540.0,-5.89,-31.51,-24.87,0,*54
1483355172.0,58175,10.38,72556.8,-5.85,-31.39,-24.83,0,*53
1483355173.26,58176,10.38,72544.0,-5.85,-31.95,-25.39,0,*56
1483355174.54,58177,10.38,72548.8,-5.85,-31.95,-25.29,0,*56
1483355175.8,58178,10.38,72536.3,-5.85,-31.57,-25.13,0,*5E
1483355177.07,58179,10.38,72544.5,-5.85,-31.73,-25.39,0,*51
1483355178.32,58180,10.38,72530.8,-5.85,-31.61,-25.23,0,*5F
1483355179.6,58181,10.38,72530.5,-5.85,-31.91,-25.45,0,*51
1483355180.86,58182,10.38,72522.8,-5.83,-31.57,-25.29,0,*54
1483355182.12,58183,10.38,72522.0,-5.85,-31.57,-25.23,0,*59
1483355183.38,58184,10.38,72540.0,-5.83,-31.57,-25.29,0,*52
1483355184.61,58185,10.38,72536.5,-5.83,-31.39,-25.09,0,*59
1483355185.9,58186,10.38,72542.8,-5.85,-31.57,-25.29,0,*56
1483355187.16,58187,10.38,72530.5,-5.85,-32.07,-25.65,0,*59
1483355188.42,58188,10.38,72542.5,-5.83,-31.61,-25.45,0,*51
1483355189.66,58189,10.38,72538.3,-5.85,-31.79,-25.49,0,*53
1483355190.92,58190,10.38,72550.8,-5.85,-31.91,-25.61,0,*57
1483355192.2,58191,10.38,72548.3,-5.85,-31.39,-25.29,0,*58
1483355193.46,58192,10.38,72556.8,-5.85,-31.23,-25.09,0,*52
1483355194.7,58193,10.38,72528.8,-5.83,-32.07,-25.91,0,*51
1483355195.93,58194,10.38,72548.0,-5.87,-32.75,-26.61,0,*5B
1483355197.2,58195,10.38,72544.3,-5.87,-32.19,-25.97,0,*5A
1483355198.48,58196,10.38,72550.5,-5.85,-31.23,-25.29,0,*54
1483355199.74,58197,10.38,72542.0,-5.85,-32.13,-26.13,0,*5F
1483355201.02,58198,10.38,72544.3,-5.85,-32.19,-26.13,0,*5A
1483355202.26,58199,10.38,72544.0,-5.87,-32.13,-26.13,0,*53
1483355203.54,58200,10.38,72526.3,-5.89,-32.19,-26.13,0,*54
1483355204.8,58201,10.38,72518.8,-5.89,-32.35,-26.29,0,*52
1483355206.03,58202,10.38,72536.3,-5.89,-32.39,-26.45,0,*57
1483355207.26,58203,10.38,72544.0,-5.89,-32.23,-26.45,0,*5D
1483355208.49,58204,10.38,72544.8,-5.89,-32.39,-26.45,0,*51
1483355209.72,58205,10.38,72546.5,-5.93,-32.35,-26.45,0,*57
1483355210.98,58206,10.38,72550.3,-5.93,-32.29,-26.39,0,*52
1483355212.27,58207,10.38,72550.0,-5.93,-32.79,-26.93,0,*56
1483355213.51,58208,10.38,72536.8,-5.95,-32.69,-26.81,0,*5D
1483355214.74,58209,10.38,72554.5,-5.95,-32.35,-26.55,0,*5C
1483355215.97,58210,10.38,72558.8,-5.97,-32.45,-26.61,0,*56
1483355217.22,58211,10.38,72560.0,-5.97,-32.63,-26.71,0,*52
1483355218.45,58212,10.38,72562.0,-5.97,-32.51,-26.77,0,*56
1483355219.7,58213,10.38,72570.8,-5.99,-32.57,-26.81,0,*56
1483355220.96,58214,10.38,72558.8,-5.99,-32.01,-26.17,0,*5D
1483355222.16,58215,10.38,72560.0,-6.01,-31.67,-25.87,0,*57
1483355223.4,58216,10.38,72550.8,-6.01,-32.01,-26.29,0,*50
1483355224.66,58217,10.38,72566.5,-5.99,-31.79,-26.13,0,*56
1483355225.89,58218,10.38,72562.8,-6.01,-31.51,-25.65,0,*53
1483355227.12,58219,10.38,72564.8,-6.01,-31.45,-25.81,0,*5D
1483355228.33,58220,10.38,72558.5,-6.05,-31.67,-26.03,0,*5A
1483355229.56,58221,10.38,72550.8,-6.01,-31.67,-25.97,0,*51
1483355230.86,58222,10.38,72552.3,-6.07,-31.95,-26.29,0,*5F
1483355232.09,58223,10.38,72566.8,-6.05,-31.61,-26.07,0,*5B
1483355233.32,58224,10.38,72562.3,-6.05,-31.39,-25.91,0,*5D
1483355234.59,58225,10.38,72564.5,-6.07,-31.57,-26.07,0,*5A
1483355235.87,58226,10.38,72560.5,-6.07,-31.39,-25.81,0,*5C
1483355237.1,58227,10.38,72548.5,-6.07,-31.29,-25.91,0,*5D
1483355238.4,58228,10.38,72544.5,-6.07,-31.23,-25.75,0,*52
1483355239.66,58229,10.38,72540.3,-6.07,-31.17,-25.71,0,*50
1483355240.93,58230,10.38,72542.3,-6.07,-31.29,-25.75,0,*51
1483355242.16,58231,10.38,72548.5,-6.07,-31.01,-25.61,0,*5F
1483355243.43,58232,10.38,72548.5,-6.09,-31.23,-25.71,0,*53
1483355244.67,58233,10.38,72530.0,-6.09,-31.29,-25.75,0,*5C
1483355245.96,58234,10.38,72540.5,-6.07,-31.39,-25.97,0,*58
1483355247.23,58235,10.38,72530.8,-6.11,-31.45,-25.97,0,*55
1483355248.49,58236,10.38,72524.0,-6.11,-31.45,-26.13,0,*59
1483355249.74,58237,10.38,72536.8,-6.11,-31.45,-26.03,0,*59
1483355251.0,58238,10.38,72542.0,-6.11,-31.33,-25.97,0,*59
1483355252.24,58239,10.38,72538.3,-6.13,-31.11,-25.87,0,*5B
1483355253.48,58240,10.38,72540.3,-6.13,-30.95,-25.65,0,*54
1483355254.72,58241,10.38,72528.5,-6.13,-30.73,-25.65,0,*5D
1483355255.96,58242,10.38,72522.5,-6.13,-30.77,-25.61,0,*5E
1483355257.2,58243,10.38,72536.5,-6.13,-30.61,-25.49,0,*52
1483355258.47,58244,10.38,72522.0,-6.13,-30.95,-25.75,0,*51
1483355259.74,58245,10.38,72506.8,-6.13,-30.77,-25.75,0,*5C
1483355261.0,58246,10.38,72494.5,-6.13,-30.77,-25.75,0,*5F
1483355262.27,58247,10.38,72508.5,-6.13,-30.89,-25.75,0,*5F
1483355263.5,58248,10.38,72494.5,-6.13,-30.95,-25.87,0,*50
1483355264.71,58249,10.38,72496.3,-6.13,-31.05,-26.03,0,*56
1483355265.95,58250,10.38,72504.0,-6.13,-31.05,-25.97,0,*50
1483355267.19,58251,10.38,72490.0,-6.17,-31.33,-26.33,0,*5D
1483355268.39,58252,10.38,72496.5,-6.17,-31.29,-26.23,0,*54
1483355269.63,58253,10.38,72506.8,-6.17,-31.29,-26.33,0,*54
1483355270.86,58254,10.38,72528.3,-6.17,-30.89,-25.87,0,*54
1483355272.08,58255,10.38,72536.5,-6.17,-30.27,-25.49,0,*53
1483355273.37,58256,10.38,72514.3,-6.19,-30.01,-25.29,0,*5C
1483355274.61,58257,10.38,72514.3,-6.19,-30.33,-25.61,0,*50
1483355275.86,58258,10.38,72536.8,-6.19,-30.27,-25.61,0,*5A
1483355277.09,58259,10.38,72532.3,-6.17,-30.33,-25.81,0,*5E
1483355278.35,58260,10.38,72534.5,-6.19,-30.33,-25.75,0,*51
1483355279.64,58261,10.38,72532.3,-6.19,-30.39,-25.75,0,*5A
1483355280.9,58262,10.38,72552.5,-6.21,-30.17,-25.71,0,*5A
1483355282.14,58263,10.38,72544.0,-6.21,-30.33,-25.75,0,*59
1483355283.43,58264,10.38,72532.3,-6.23,-30.17,-25.75,0,*5A
1483355284.69,58265,10.38,72514.5,-6.23,-30.05,-25.65,0,*59
1483355285.96,58266,10.38,72538.3,-6.21,-30.17,-25.71,0,*5E
1483355287.17,58267,10.38,72528.5,-6.21,-30.11,-25.87,0,*50
1483355288.42,58268,10.38,72526.8,-6.23,-30.05,-25.91,0,*5F
1483355289.67,58269,10.38,72530.3,-6.23,-29.83,-25.65,0,*53
1483355290.95,58270,10.38,72524.8,-6.23,-30.05,-25.81,0,*57
1483355292.18,58271,10.38,72518.5,-6.21,-29.61,-25.29,0,*5C
1483355293.48,58272,10.38,72546.3,-6.23,-29.39,-25.29,0,*50
1483355294.75,58273,10.38,72522.0,-6.23,-29.83,-25.75,0,*59
1483355296.0,58274,10.38,72516.0,-6.23,-29.57,-25.61,0,*52
1483355297.24,58275,10.38,72526.3,-6.23,-29.57,-25.65,0,*57
1483355298.52,58276,10.38,72534.5,-6.23,-29.51,-25.49,0,*5C